| time (UTC) | temp C | wind direction | speed KPH | gust KPH | rain 1hr cm | rain 24hr cm | rain mn cm | humidity % | barometer mb |
| 20260504050504 | 6 | 0 | 0.0 | 0.0 | 0.00 | 0.00 | 0.00 | 65 | 1013.2 |
| 20260504050004 | 6 | 0 | 0.0 | 0.0 | 0.00 | 0.00 | 0.00 | 65 | 1013.2 |
| 20260504045503 | 6 | 0 | 0.0 | 0.0 | 0.00 | 0.00 | 0.00 | 65 | 1013.4 |
| 20260504045003 | 6 | 0 | 0.0 | 0.0 | 0.00 | 0.00 | 0.00 | 64 | 1013.3 |
| 20260504044003 | 7 | 0 | 0.0 | 0.0 | 0.00 | 0.00 | 0.00 | 63 | 1013.3 |
| 20260504043003 | 7 | 0 | 0.0 | 0.0 | 0.00 | 0.00 | 0.00 | 61 | 1013.2 |
| 20260504042003 | 7 | 0 | 0.0 | 0.0 | 0.00 | 0.00 | 0.00 | 61 | 1013.2 |
| 20260504041003 | 7 | 0 | 0.0 | 0.0 | 0.00 | 0.00 | 0.00 | 61 | 1013.1 |
| 20260504040504 | 7 | 0 | 0.0 | 0.0 | 0.00 | 0.00 | 0.00 | 61 | 1013.0 |
| 20260504040004 | 7 | 0 | 0.0 | 0.0 | 0.00 | 0.00 | 0.00 | 61 | 1013.0 |
| 20260504035504 | 7 | 0 | 0.0 | 0.0 | 0.00 | 0.00 | 0.00 | 61 | 1012.9 |
| 20260504034503 | 7 | 0 | 0.0 | 0.0 | 0.00 | 0.00 | 0.00 | 61 | 1012.9 |
| 20260504033504 | 7 | 0 | 0.0 | 0.0 | 0.00 | 0.00 | 0.00 | 61 | 1012.9 |
| 20260504033005 | 7 | 0 | 0.0 | 0.0 | 0.00 | 0.00 | 0.00 | 60 | 1012.9 |
| 20260504032504 | 7 | 0 | 0.0 | 0.0 | 0.00 | 0.00 | 0.00 | 59 | 1012.9 |
| 20260504032004 | 7 | 345 | 0.0 | 1.6 | 0.00 | 0.00 | 0.00 | 58 | 1012.9 |
| 20260504031503 | 8 | 345 | 0.0 | 1.6 | 0.00 | 0.00 | 0.00 | 58 | 1012.9 |
| 20260504031003 | 8 | 0 | 0.0 | 0.0 | 0.00 | 0.00 | 0.00 | 58 | 1012.9 |
| 20260504025506 | 8 | 346 | 0.0 | 1.6 | 0.00 | 0.00 | 0.00 | 57 | 1012.7 |
| 20260504025003 | 8 | 346 | 0.0 | 1.6 | 0.00 | 0.00 | 0.00 | 58 | 1012.8 |
| 20260504024503 | 8 | 0 | 0.0 | 0.0 | 0.00 | 0.00 | 0.00 | 58 | 1012.7 |
| 20260504024003 | 8 | 0 | 0.0 | 0.0 | 0.00 | 0.00 | 0.00 | 57 | 1012.6 |
| 20260504023503 | 8 | 0 | 0.0 | 0.0 | 0.00 | 0.00 | 0.00 | 57 | 1012.6 |
| 20260504022501 | 8 | 0 | 0.0 | 0.0 | 0.00 | 0.00 | 0.00 | 57 | 1012.7 |
| 20260504022002 | 8 | 0 | 0.0 | 0.0 | 0.00 | 0.00 | 0.00 | 57 | 1012.7 |
| 20260504021502 | 8 | 0 | 0.0 | 0.0 | 0.00 | 0.00 | 0.00 | 57 | 1012.7 |
| 20260504021002 | 8 | 0 | 0.0 | 0.0 | 0.00 | 0.00 | 0.00 | 57 | 1012.7 |
| 20260504020502 | 8 | 0 | 0.0 | 0.0 | 0.00 | 0.00 | 0.00 | 56 | 1012.7 |
| 20260504020004 | 8 | 0 | 0.0 | 0.0 | 0.00 | 0.00 | 0.00 | 56 | 1012.6 |
| 20260504014502 | 8 | 0 | 0.0 | 0.0 | 0.00 | 0.00 | 0.00 | 56 | 1012.5 |
| 20260504014003 | 8 | 0 | 0.0 | 0.0 | 0.00 | 0.00 | 0.00 | 55 | 1012.5 |
| 20260504013502 | 9 | 345 | 0.0 | 1.6 | 0.00 | 0.00 | 0.00 | 54 | 1012.5 |
| 20260504013002 | 9 | 345 | 0.0 | 1.6 | 0.00 | 0.00 | 0.00 | 54 | 1012.5 |
| 20260504012002 | 9 | 0 | 0.0 | 0.0 | 0.00 | 0.00 | 0.00 | 52 | 1012.3 |
| 20260504011502 | 9 | 346 | 0.0 | 1.6 | 0.00 | 0.00 | 0.00 | 54 | 1012.2 |
| 20260504011002 | 9 | 346 | 0.0 | 1.6 | 0.00 | 0.00 | 0.00 | 55 | 1012.1 |
| 20260504010503 | 9 | 346 | 0.0 | 1.6 | 0.00 | 0.00 | 0.00 | 53 | 1012.1 |
| 20260504010003 | 10 | 346 | 0.0 | 1.6 | 0.00 | 0.00 | 0.00 | 52 | 1012.2 |
| 20260504005502 | 10 | 346 | 0.0 | 1.6 | 0.00 | 0.00 | 0.00 | 51 | 1012.2 |
| 20260504005002 | 10 | 346 | 0.0 | 1.6 | 0.00 | 0.00 | 0.00 | 51 | 1012.1 |
| 20260504004502 | 10 | 0 | 0.0 | 0.0 | 0.00 | 0.00 | 0.00 | 50 | 1012.0 |
| 20260504002502 | 11 | 353 | 0.0 | 1.6 | 0.00 | 0.00 | 0.00 | 49 | 1011.8 |
| 20260504002002 | 11 | 353 | 0.0 | 1.6 | 0.00 | 0.00 | 0.00 | 48 | 1011.8 |
| 20260504001502 | 11 | 353 | 0.0 | 1.6 | 0.00 | 0.00 | 0.00 | 48 | 1011.7 |
| 20260504001004 | 11 | 353 | 0.0 | 1.6 | 0.00 | 0.00 | 0.00 | 46 | 1011.7 |
| 20260504000502 | 12 | 353 | 0.0 | 1.6 | 0.00 | 0.00 | 0.00 | 45 | 1011.5 |
| 20260503235502 | 12 | 339 | 0.0 | 1.6 | 0.00 | 0.00 | 0.00 | 42 | 1011.5 |
| 20260503235002 | 12 | 322 | 0.0 | 3.2 | 0.00 | 0.00 | 0.00 | 42 | 1011.3 |
| 20260503234503 | 12 | 324 | 0.0 | 3.2 | 0.00 | 0.00 | 0.00 | 41 | 1011.3 |
| 20260503234001 | 12 | 328 | 0.0 | 1.6 | 0.00 | 0.00 | 0.00 | 42 | 1011.3 |
| 20260503233502 | 13 | 325 | 0.0 | 3.2 | 0.00 | 0.00 | 0.00 | 42 | 1011.2 |
| 20260503233002 | 13 | 328 | 0.0 | 3.2 | 0.00 | 0.00 | 0.00 | 41 | 1011.2 |
| 20260503232502 | 13 | 317 | 0.0 | 4.8 | 0.00 | 0.00 | 0.00 | 40 | 1011.3 |
| 20260503232002 | 14 | 310 | 1.6 | 4.8 | 0.00 | 0.00 | 0.00 | 38 | 1011.3 |
| 20260503231502 | 15 | 319 | 1.6 | 6.4 | 0.00 | 0.00 | 0.00 | 38 | 1011.3 |
| 20260503231002 | 15 | 322 | 1.6 | 6.4 | 0.00 | 0.00 | 0.00 | 37 | 1011.3 |
| 20260503230502 | 15 | 317 | 1.6 | 11.3 | 0.00 | 0.00 | 0.00 | 36 | 1011.3 |
| 20260503230002 | 15 | 320 | 3.2 | 11.3 | 0.00 | 0.00 | 0.00 | 37 | 1011.2 |
| 20260503224502 | 15 | 327 | 4.8 | 16.1 | 0.00 | 0.00 | 0.00 | 34 | 1011.1 |
| 20260503223502 | 15 | 320 | 4.8 | 12.9 | 0.00 | 0.00 | 0.00 | 35 | 1011.2 |
| 20260503222502 | 15 | 323 | 4.8 | 12.9 | 0.00 | 0.00 | 0.00 | 34 | 1011.1 |
| 20260503221505 | 15 | 327 | 4.8 | 12.9 | 0.00 | 0.00 | 0.00 | 35 | 1011.1 |
| 20260503221002 | 15 | 335 | 4.8 | 12.9 | 0.00 | 0.00 | 0.00 | 34 | 1011.1 |
| 20260503220502 | 15 | 341 | 4.8 | 16.1 | 0.00 | 0.00 | 0.00 | 35 | 1011.3 |
| 20260503220002 | 15 | 340 | 4.8 | 16.1 | 0.00 | 0.00 | 0.00 | 35 | 1011.4 |
| 20260503215502 | 15 | 336 | 4.8 | 14.5 | 0.00 | 0.00 | 0.00 | 35 | 1011.3 |
| 20260503214502 | 15 | 325 | 8.0 | 20.9 | 0.00 | 0.00 | 0.00 | 34 | 1011.2 |
| 20260503213502 | 15 | 338 | 4.8 | 14.5 | 0.00 | 0.00 | 0.00 | 36 | 1011.2 |
| 20260503213002 | 15 | 334 | 4.8 | 14.5 | 0.00 | 0.00 | 0.00 | 36 | 1011.2 |
| 20260503212004 | 14 | 330 | 3.2 | 9.7 | 0.00 | 0.00 | 0.00 | 36 | 1011.1 |
| 20260503211502 | 14 | 319 | 3.2 | 12.9 | 0.00 | 0.00 | 0.00 | 35 | 1011.2 |
| 20260503210502 | 15 | 339 | 4.8 | 17.7 | 0.00 | 0.00 | 0.00 | 35 | 1011.2 |
| 20260503210002 | 15 | 336 | 4.8 | 17.7 | 0.00 | 0.00 | 0.00 | 33 | 1011.2 |
| 20260503205502 | 15 | 321 | 4.8 | 16.1 | 0.00 | 0.00 | 0.00 | 36 | 1011.1 |
| 20260503205002 | 15 | 329 | 4.8 | 17.7 | 0.00 | 0.00 | 0.00 | 35 | 1011.2 |
| 20260503204502 | 15 | 334 | 6.4 | 17.7 | 0.00 | 0.00 | 0.00 | 36 | 1011.2 |
| 20260503204002 | 15 | 332 | 8.0 | 25.7 | 0.00 | 0.00 | 0.00 | 35 | 1011.3 |
| 20260503203503 | 15 | 328 | 6.4 | 25.7 | 0.00 | 0.00 | 0.00 | 36 | 1011.3 |
| 20260503203002 | 15 | 329 | 8.0 | 20.9 | 0.00 | 0.00 | 0.00 | 35 | 1011.3 |
| 20260503202503 | 15 | 328 | 6.4 | 20.9 | 0.00 | 0.00 | 0.00 | 34 | 1011.3 |
| 20260503202002 | 15 | 343 | 4.8 | 14.5 | 0.00 | 0.00 | 0.00 | 34 | 1011.4 |
| 20260503201502 | 14 | 355 | 6.4 | 20.9 | 0.00 | 0.00 | 0.00 | 38 | 1011.4 |
| 20260503201002 | 14 | 340 | 8.0 | 24.1 | 0.00 | 0.00 | 0.00 | 35 | 1011.5 |
| 20260503200502 | 14 | 323 | 9.7 | 24.1 | 0.00 | 0.00 | 0.00 | 34 | 1011.4 |
| 20260503200002 | 14 | 320 | 8.0 | 20.9 | 0.00 | 0.00 | 0.00 | 36 | 1011.5 |
| 20260503195002 | 14 | 343 | 6.4 | 17.7 | 0.00 | 0.00 | 0.00 | 34 | 1011.5 |
| 20260503194501 | 14 | 346 | 6.4 | 17.7 | 0.00 | 0.00 | 0.00 | 38 | 1011.6 |
| 20260503194003 | 14 | 342 | 6.4 | 20.9 | 0.00 | 0.00 | 0.00 | 38 | 1011.6 |
| 20260503193502 | 14 | 331 | 8.0 | 20.9 | 0.00 | 0.00 | 0.00 | 35 | 1011.7 |
| 20260503193002 | 15 | 322 | 6.4 | 20.9 | 0.00 | 0.00 | 0.00 | 36 | 1011.8 |
| 20260503192502 | 14 | 334 | 6.4 | 17.7 | 0.00 | 0.00 | 0.00 | 39 | 1011.8 |
| 20260503192002 | 14 | 347 | 8.0 | 20.9 | 0.00 | 0.00 | 0.00 | 39 | 1011.8 |
| 20260503191502 | 13 | 6 | 8.0 | 20.9 | 0.00 | 0.00 | 0.00 | 36 | 1011.9 |
| 20260503191002 | 13 | 5 | 6.4 | 17.7 | 0.00 | 0.00 | 0.00 | 36 | 1011.9 |
| 20260503190502 | 14 | 336 | 6.4 | 17.7 | 0.00 | 0.00 | 0.00 | 35 | 1011.9 |
| 20260503190002 | 13 | 321 | 8.0 | 17.7 | 0.00 | 0.00 | 0.00 | 38 | 1012.0 |
| 20260503185503 | 13 | 318 | 6.4 | 17.7 | 0.00 | 0.00 | 0.00 | 40 | 1012.2 |
| 20260503185002 | 13 | 315 | 8.0 | 22.5 | 0.00 | 0.00 | 0.00 | 37 | 1012.3 |
| 20260503184502 | 13 | 325 | 8.0 | 22.5 | 0.00 | 0.00 | 0.00 | 38 | 1012.3 |
| 20260503184002 | 13 | 336 | 9.7 | 24.1 | 0.00 | 0.00 | 0.00 | 40 | 1012.3 |
| 20260503183502 | 13 | 339 | 9.7 | 24.1 | 0.00 | 0.00 | 0.00 | 39 | 1012.4 |
| 20260503183002 | 13 | 347 | 9.7 | 25.7 | 0.00 | 0.00 | 0.00 | 38 | 1012.3 |
| 20260503181502 | 13 | 337 | 6.4 | 25.7 | 0.00 | 0.00 | 0.00 | 41 | 1012.3 |
| 20260503181004 | 13 | 330 | 6.4 | 20.9 | 0.00 | 0.00 | 0.00 | 42 | 1012.3 |
| 20260503180502 | 12 | 340 | 6.4 | 20.9 | 0.00 | 0.00 | 0.00 | 38 | 1012.4 |
| 20260503180002 | 12 | 344 | 8.0 | 20.9 | 0.00 | 0.00 | 0.00 | 39 | 1012.5 |
| 20260503175502 | 12 | 339 | 8.0 | 27.4 | 0.00 | 0.00 | 0.00 | 39 | 1012.8 |
| 20260503175002 | 12 | 317 | 6.4 | 27.4 | 0.00 | 0.00 | 0.00 | 40 | 1012.4 |
| 20260503174503 | 12 | 327 | 8.0 | 24.1 | 0.00 | 0.00 | 0.00 | 41 | 1012.6 |
| 20260503173502 | 12 | 339 | 9.7 | 24.1 | 0.00 | 0.00 | 0.00 | 40 | 1012.6 |
| 20260503173002 | 12 | 339 | 9.7 | 24.1 | 0.00 | 0.00 | 0.00 | 41 | 1012.7 |
| 20260503172502 | 12 | 331 | 9.7 | 33.8 | 0.00 | 0.00 | 0.00 | 41 | 1012.6 |
| 20260503172002 | 12 | 331 | 9.7 | 33.8 | 0.00 | 0.00 | 0.00 | 41 | 1012.8 |
| 20260503171502 | 12 | 333 | 8.0 | 22.5 | 0.00 | 0.00 | 0.00 | 42 | 1012.7 |
| 20260503171002 | 12 | 335 | 9.7 | 22.5 | 0.00 | 0.00 | 0.00 | 39 | 1012.8 |
| 20260503170502 | 11 | 340 | 11.3 | 27.4 | 0.00 | 0.00 | 0.00 | 39 | 1013.0 |
| 20260503151002 | 9 | 8 | 6.4 | 19.3 | 0.00 | 0.00 | 0.00 | 47 | 1013.5 |
| 20260503150502 | 9 | 11 | 8.0 | 25.7 | 0.00 | 0.00 | 0.00 | 46 | 1013.4 |
| 20260503131002 | 7 | 351 | 8.0 | 25.7 | 0.00 | 0.00 | 0.00 | 60 | 1013.3 |
| 20260503130503 | 7 | 354 | 9.7 | 25.7 | 0.00 | 0.00 | 0.00 | 59 | 1013.3 |
| 20260503110502 | 5 | 344 | 3.2 | 14.5 | 0.00 | 0.00 | 0.00 | 66 | 1012.3 |
| 20260503090502 | 5 | 337 | 3.2 | 16.1 | 0.00 | 0.00 | 0.00 | 72 | 1010.9 |
| 20260503081503 | 5 | 332 | 3.2 | 12.9 | 0.00 | 0.00 | 0.00 | 73 | 1010.7 |
| 20260503081003 | 5 | 331 | 3.2 | 12.9 | 0.00 | 0.00 | 0.00 | 73 | 1010.7 |
| 20260503080502 | 5 | 328 | 3.2 | 11.3 | 0.00 | 0.00 | 0.00 | 73 | 1010.6 |
| 20260503072505 | 5 | 340 | 3.2 | 12.9 | 0.00 | 0.00 | 0.00 | 74 | 1010.2 |
| 20260503072003 | 5 | 338 | 3.2 | 12.9 | 0.00 | 0.00 | 0.00 | 74 | 1010.2 |
| 20260503071502 | 5 | 338 | 3.2 | 12.9 | 0.00 | 0.00 | 0.00 | 75 | 1010.3 |
| 20260503071002 | 5 | 339 | 3.2 | 12.9 | 0.00 | 0.00 | 0.00 | 75 | 1010.2 |